Weather observations for the past three days for
Southwest Oregon Regional Airport
Imperial (Metric)
Date Time (pdt) Wind (mph) Vis. (mi.) Weather Sky Cond. Temperature (ºF) Relative Humidity Wind Chill (°F) Heat Index (°F) Pressure Precipitation (in)
Air Dwpt 6 hour altimeter (in) sea level (mb) 1 hr 3 hr 6 hr
Max. Min.
19 00:56 E 3 10.00 Overcast OVC002 0 0 0% 30.19 0.0
18 23:56 Calm 0.75 Fog/Mist OVC002 55.4 0 0% 30.2 1022.4
18 22:56 W 3 1.00 Light Rain Fog/Mist OVC002 55 54 64.9 55 96% 30.19 1022.3
18 21:56 W 6 10.00 Fair CLR 55.9 54 93% 30.18 1022.0
18 20:56 W 6 10.00 A Few Clouds FEW005 57.9 55 90% 30.17 1021.7
18 19:56 W 8 10.00 A Few Clouds FEW005 60.1 55.9 86% 30.17 1021.4
18 18:56 W 9 10.00 Fair CLR 62.1 55.9 80% 30.15 1021.0
18 17:56 NW 10 10.00 Fair CLR 64 57 78% 30.15 1020.9
18 16:56 W 12 10.00 Fair CLR 64.9 55.9 66.9 64 73% 30.15 1020.8
18 15:56 W 10 10.00 Fair CLR 64.9 55.9 73% 30.15 1021.0
18 14:56 NW 9 10.00 Fair CLR 64.9 57 76% 30.15 1021.1
18 13:56 NW 10 10.00 Fair CLR 64.9 55.9 73% 30.16 1021.2
18 12:56 W 10 10.00 Fair CLR 64.9 55.9 73% 30.16 1021.1
18 11:56 W 10 10.00 Fair CLR 64 57 78% 30.15 1021.0
18 10:56 W 8 10.00 Fair CLR 64 57 64 57 78% 30.15 1021.0
18 09:56 N 3 10.00 Overcast OVC012 62.1 55.9 80% 30.15 1020.8
18 08:56 S 3 6.00 Overcast with Haze OVC012 61 55.9 84% 30.15 1020.8
18 07:56 S 5 2.50 Fog/Mist BKN008 OVC012 59 55.9 90% 30.14 1020.5
18 06:56 Calm 6.00 Fog/Mist OVC006 57 57 100% 30.13 1020.2
18 05:56 W 3 10.00 Overcast SCT007 BKN012 OVC017 57 57 100% 30.13 1020.2
18 04:56 W 5 10.00 Overcast BKN009 OVC013 57 55.9 60.1 57 96% 30.13 1020.1
18 03:56 W 5 10.00 Overcast OVC009 57 55 93% 30.11 1019.7
18 02:56 SE 3 10.00 Overcast OVC011 57.9 55 90% 30.11 1019.6
18 01:56 Calm 10.00 Overcast OVC011 57.9 55.9 93% 30.11 1019.6
18 00:56 Calm 10.00 Overcast OVC011 57.9 55.9 93% 30.12 1020.0
17 23:56 W 5 10.00 Overcast OVC013 59 55 87% 30.12 1020.0
17 22:56 SW 6 10.00 Overcast OVC015 59 55 64 57.9 87% 30.13 1020.1
17 21:56 W 5 10.00 Overcast OVC015 59 55 87% 30.13 1020.3
17 20:56 W 7 10.00 Overcast OVC017 60.1 55 84% 30.12 1019.9
17 19:56 W 8 10.00 Overcast BKN021 OVC032 59 54 83% 30.11 1019.7
17 18:56 W 13 10.00 Overcast OVC021 62.1 54 75% 30.11 1019.6
17 17:56 W 10 10.00 Overcast OVC029 64 55 73% 30.11 1019.7
17 16:56 W 12 10.00 Overcast OVC027 63 54 64 57.9 73% 30.12 1019.8
17 15:56 W 15 10.00 Overcast OVC023 64 54 70% 30.12 1019.9
17 14:56 W 12 10.00 Overcast OVC023 61 53.1 75% 30.13 1020.1
17 13:56 NW 5 10.00 Overcast OVC025 62.1 53.1 73% 30.12 1020.0
17 12:56 W 5 10.00 Overcast OVC019 60.1 52 75% 30.12 1020.0
17 11:56 Vrbl 5 10.00 Overcast OVC015 57.9 52 81% 30.11 1019.7
17 10:56 W 5 10.00 Overcast OVC017 57.9 52 57.9 55 81% 30.11 1019.4
17 09:56 W 7 10.00 Overcast OVC015 55.9 52 87% 30.09 1018.9
17 08:56 W 5 10.00 Overcast OVC015 55.9 52 87% 30.08 1018.6
17 07:56 W 6 10.00 Overcast OVC013 55 51.1 87% 30.08 1018.5
17 06:56 W 6 10.00 Overcast OVC017 55.9 50 81% 30.06 1017.9
17 05:56 SW 3 10.00 Overcast OVC019 55.9 50 81% 30.06 1017.8
17 04:56 S 3 10.00 Overcast OVC021 55.9 52 55.9 53.1 87% 30.06 1017.7
17 03:56 Calm 10.00 Overcast OVC021 55 51.1 87% 30.05 1017.5
17 02:56 Calm 10.00 A Few Clouds FEW024 55 50 83% 30.05 1017.5
17 01:56 SE 5 10.00 Partly Cloudy SCT025 54 50 87% 30.05 1017.4
17 00:56 S 6 10.00 A Few Clouds FEW025 53.1 50 89% 30.05 1017.5
16 23:56 Calm 10.00 Overcast OVC025 55.9 51.1 84% 30.06 1017.7
16 22:56 W 3 10.00 Mostly Cloudy BKN023 55.9 51.1 59 55.9 84% 30.05 1017.6
16 21:56 S 3 10.00 Overcast OVC015 55.9 52 87% 30.06 1018.0
16 20:56 SW 7 10.00 Overcast OVC013 55.9 52 87% 30.04 1017.1
16 19:56 W 7 10.00 Overcast OVC013 55.9 53.1 90% 30.04 1017.1
16 18:56 S 8 10.00 Overcast OVC013 57.9 53.1 84% 30.06 1017.9
16 17:56 SW 7 10.00 Overcast OVC013 57 52 83% 30.05 1017.5
16 16:56 SW 14 G 22 10.00 Overcast OVC013 57.9 53.1 63 57.9 84% 30.03 1016.8
16 15:56 SW 14 G 21 10.00 Fair CLR 62.1 53.1 73% 30.02 1016.4
16 14:56 W 18 10.00 Fair CLR 60.1 52 75% 30.02 1016.5
16 13:56 W 16 10.00 Fair CLR 60.1 52 75% 30.02 1016.4
16 12:56 W 17 10.00 Fair CLR 60.1 51.1 72% 30.02 1016.4
16 11:56 W 17 10.00 Fair CLR 60.1 51.1 72% 30.01 1016.2
16 10:56 W 14 10.00 Fair CLR 59 51.1 59 50 75% 30.01 1016.1
16 09:56 W 12 10.00 Fair CLR 57 51.1 81% 30.01 1016.0
16 08:56 Calm 10.00 Overcast OVC009 55 51.1 87% 30.01 1016.2
16 07:56 Vrbl 3 10.00 Overcast OVC005 52 50 93% 30.01 1016.2
16 06:56 S 3 10.00 Overcast OVC005 51.1 50 96% 30.01 1016.1
16 05:56 S 7 10.00 Overcast OVC005 50 50 100% 48 30.01 1016.2
16 04:56 S 7 10.00 Overcast OVC005 51.1 51.1 52 48.9 100% 30 1015.8
16 03:56 S 3 10.00 Overcast OVC005 51.1 51.1 100% 30 1015.9
16 02:56 S 6 10.00 Partly Cloudy SCT005 48.9 48.9 100% 47 30 1015.9
16 01:56 S 5 10.00 Overcast OVC004 48.9 48.9 100% 48 30 1015.7
Date Time (pdt) Wind (mph) Vis. (mi.) Weather Sky Cond. Air Dwpt Max. Min. Relative Humidity Wind Chill (°F) Heat Index (°F) altimeter (in) sea level (mb) 1 hr 3 hr 6 hr
6 hour
Temperature (ºF) Pressure Precipitation (in)